FW0069 Weather Reports


time (UTC)temp
C
wind
direction
speed
KPH
gust
KPH
rain 1hr
cm
rain 24hr
cm
rain mn
cm
humidity
%
barometer
mb
20260506190520 26 63 3.2 12.9 0.00 0.00 0.00 20 1017.4
20260506190020 26 103 4.8 11.3 0.00 0.00 0.00 21 1017.5
20260506185520 26 360 11.3 11.3 0.00 0.00 0.00 22 1017.6
20260506185020 25 10 4.8 11.3 0.00 0.00 0.00 22 1017.6
20260506184520 25 186 6.4 11.3 0.00 0.00 0.00 22 1017.6
20260506184020 25 360 3.2 11.3 0.00 0.00 0.00 22 1017.7
20260506183020 25 360 6.4 12.9 0.00 0.00 0.00 22 1017.8
20260506182520 25 96 3.2 12.9 0.00 0.00 0.00 23 1017.7
20260506182020 25 44 9.7 12.9 0.00 0.00 0.00 23 1017.6
20260506181521 25 94 4.8 12.9 0.00 0.00 0.00 22 1017.7
20260506181020 24 41 4.8 12.9 0.00 0.00 0.00 23 1017.5
20260506180519 24 360 6.4 12.9 0.00 0.00 0.00 24 1017.6
20260506180019 25 360 4.8 20.9 0.00 0.00 0.00 23 1017.6
20260506175019 24 84 8.0 12.9 0.00 0.00 0.00 25 1017.8
20260506174520 24 101 4.8 17.7 0.00 0.00 0.00 24 1017.7
20260506174020 24 103 3.2 17.7 0.00 0.00 0.00 24 1017.7
20260506173020 23 100 4.8 17.7 0.00 0.00 0.00 25 1017.7
20260506172520 23 360 6.4 17.7 0.00 0.00 0.00 25 1017.7
20260506172020 23 91 9.7 16.1 0.00 0.00 0.00 25 1017.6
20260506171520 23 88 16.1 16.1 0.00 0.00 0.00 25 1017.5
20260506171020 23 25 9.7 14.5 0.00 0.00 0.00 25 1017.7
20260506170520 23 360 6.4 12.9 0.00 0.00 0.00 25 1017.3
20260506170020 22 360 6.4 12.9 0.00 0.00 0.00 26 1017.4
20260506165519 22 360 6.4 16.1 0.00 0.00 0.00 27 1017.5
20260506165020 22 80 8.0 16.1 0.00 0.00 0.00 27 1017.6
20260506164520 22 360 1.6 11.3 0.00 0.00 0.00 26 1017.5
20260506164021 22 360 3.2 11.3 0.00 0.00 0.00 27 1017.4
20260506163520 22 360 6.4 11.3 0.00 0.00 0.00 27 1017.6
20260506163019 22 360 3.2 11.3 0.00 0.00 0.00 27 1017.3
20260506162519 21 96 4.8 11.3 0.00 0.00 0.00 28 1017.4
20260506162020 21 81 3.2 16.1 0.00 0.00 0.00 28 1017.4
20260506161519 21 89 11.3 16.1 0.00 0.00 0.00 29 1017.3
20260506161019 21 360 3.2 11.3 0.00 0.00 0.00 29 1017.4
20260506160519 21 91 8.0 11.3 0.00 0.00 0.00 30 1017.2
20260506160020 21 360 8.0 11.3 0.00 0.00 0.00 29 1017.1
20260506155519 21 51 8.0 11.3 0.00 0.00 0.00 30 1017.5
20260506155019 20 360 3.2 11.3 0.00 0.00 0.00 31 1017.4
20260506154520 20 360 9.7 9.7 0.00 0.00 0.00 32 1017.4
20260506154020 20 360 4.8 9.7 0.00 0.00 0.00 31 1017.3
20260506153520 19 360 4.8 16.1 0.00 0.00 0.00 32 1017.1
20260506153020 19 360 6.4 16.1 0.00 0.00 0.00 33 1017.1
20260506152020 18 360 8.0 11.3 0.00 0.00 0.00 34 1017.1
20260506151019 18 360 8.0 11.3 0.00 0.00 0.00 36 1016.9
20260506150520 18 72 6.4 9.7 0.00 0.00 0.00 37 1017.0
20260506150020 17 78 3.2 9.7 0.00 0.00 0.00 37 1017.0
20260506145519 17 80 3.2 9.7 0.00 0.00 0.00 37 1017.2
20260506145020 17 94 4.8 8.0 0.00 0.00 0.00 37 1017.1
20260506144519 17 67 3.2 6.4 0.00 0.00 0.00 37 1017.0
20260506144020 17 73 0.0 11.3 0.00 0.00 0.00 38 1016.7
20260506143019 16 360 1.6 9.7 0.00 0.00 0.00 38 1016.6
20260506142519 16 72 3.2 8.0 0.00 0.00 0.00 39 1016.6
20260506141519 16 68 3.2 6.4 0.00 0.00 0.00 40 1016.3
20260506141019 15 65 3.2 6.4 0.00 0.00 0.00 41 1016.1
20260506140519 14 360 0.0 3.2 0.00 0.00 0.00 42 1016.1
20260506135520 13 269 0.0 1.6 0.00 0.00 0.00 42 1016.0
20260506135021 13 360 1.6 1.6 0.00 0.00 0.00 40 1016.0
20260506134519 13 360 0.0 3.2 0.00 0.00 0.00 39 1015.9
20260506134021 13 265 0.0 3.2 0.00 0.00 0.00 39 1015.6
20260506133519 13 360 0.0 3.2 0.00 0.00 0.00 39 1015.5
20260506133019 13 360 0.0 3.2 0.00 0.00 0.00 39 1015.4
20260506132020 13 360 0.0 3.2 0.00 0.00 0.00 39 1015.1
20260506130519 13 264 1.6 3.2 0.00 0.00 0.00 38 1015.0
20260506124520 13 265 0.0 4.8 0.00 0.00 0.00 39 1015.0
20260506124019 13 360 0.0 4.8 0.00 0.00 0.00 38 1014.8
20260506123519 13 360 3.2 4.8 0.00 0.00 0.00 38 1014.7
20260506122520 13 264 0.0 4.8 0.00 0.00 0.00 37 1014.5
20260506122019 13 263 0.0 4.8 0.00 0.00 0.00 36 1014.5
20260506121520 13 360 3.2 4.8 0.00 0.00 0.00 37 1014.6
20260506121019 13 265 0.0 3.2 0.00 0.00 0.00 36 1014.5
20260506120519 14 265 1.6 3.2 0.00 0.00 0.00 35 1014.7
20260506120020 14 264 0.0 3.2 0.00 0.00 0.00 35 1014.7
20260506115520 14 360 0.0 4.8 0.00 0.00 0.00 35 1014.6
20260506115020 14 263 0.0 4.8 0.00 0.00 0.00 35 1014.6
20260506114519 14 309 0.0 4.8 0.00 0.00 0.00 34 1014.5
20260506114019 14 308 0.0 4.8 0.00 0.00 0.00 35 1014.5
20260506113519 14 11 1.6 4.8 0.00 0.00 0.00 34 1014.4
20260506112019 14 9 1.6 3.2 0.00 0.00 0.00 34 1014.4
20260506111519 14 9 3.2 4.8 0.00 0.00 0.00 35 1014.4
20260506111019 14 9 0.0 4.8 0.00 0.00 0.00 34 1014.3
20260506110519 14 12 0.0 6.4 0.00 0.00 0.00 34 1014.3
20260506110020 14 13 1.6 6.4 0.00 0.00 0.00 35 1014.3
20260506105519 14 15 4.8 4.8 0.00 0.00 0.00 34 1014.2
20260506104519 14 17 3.2 6.4 0.00 0.00 0.00 34 1014.0
20260506104019 15 21 0.0 4.8 0.00 0.00 0.00 34 1013.9
20260506103519 15 26 0.0 1.6 0.00 0.00 0.00 34 1013.9
20260506102519 15 24 0.0 4.8 0.00 0.00 0.00 33 1013.8
20260506102021 15 24 0.0 3.2 0.00 0.00 0.00 33 1013.8
20260506101519 15 27 0.0 1.6 0.00 0.00 0.00 33 1013.6
20260506101019 15 25 0.0 1.6 0.00 0.00 0.00 33 1013.5
20260506100519 15 24 0.0 6.4 0.00 0.00 0.00 32 1013.7
20260506100019 15 24 0.0 6.4 0.00 0.00 0.00 33 1013.6
20260506095519 15 22 6.4 6.4 0.00 0.00 0.00 33 1013.3
20260506095019 15 331 3.2 6.4 0.00 0.00 0.00 33 1013.2
20260506094021 15 360 3.2 6.4 0.00 0.00 0.00 32 1013.1
20260506093519 15 329 6.4 6.4 0.00 0.00 0.00 32 1013.1
20260506092519 15 360 3.2 4.8 0.00 0.00 0.00 32 1013.1
20260506092019 15 360 1.6 4.8 0.00 0.00 0.00 32 1013.0
20260506091519 16 331 3.2 4.8 0.00 0.00 0.00 32 1013.3
20260506091019 16 332 0.0 1.6 0.00 0.00 0.00 32 1013.1
20260506090519 16 360 0.0 4.8 0.00 0.00 0.00 32 1013.3
20260506090019 16 360 0.0 4.8 0.00 0.00 0.00 32 1013.2
20260506085519 16 360 0.0 6.4 0.00 0.00 0.00 32 1013.3
20260506084519 16 334 3.2 8.0 0.00 0.00 0.00 32 1013.3
20260506084019 16 311 4.8 8.0 0.00 0.00 0.00 31 1013.3
20260506083019 16 309 0.0 3.2 0.00 0.00 0.00 32 1013.4
20260506082519 16 310 1.6 1.6 0.00 0.00 0.00 32 1013.4
20260506082019 16 311 0.0 0.0 0.00 0.00 0.00 31 1013.4
20260506081520 16 309 0.0 0.0 0.00 0.00 0.00 31 1013.4
20260506081019 16 309 0.0 4.8 0.00 0.00 0.00 31 1013.3
20260506080519 16 309 0.0 6.4 0.00 0.00 0.00 31 1013.4
20260506073519 17 9 4.8 8.0 0.00 0.00 0.00 30 1013.1
20260506073019 17 360 4.8 4.8 0.00 0.00 0.00 30 1013.1
20260506072519 17 360 3.2 4.8 0.00 0.00 0.00 30 1013.2
20260506072019 17 360 1.6 6.4 0.00 0.00 0.00 30 1013.1
20260506071019 17 360 1.6 4.8 0.00 0.00 0.00 29 1013.2
20260506070519 17 360 1.6 3.2 0.00 0.00 0.00 29 1013.1
20260506062019 18 360 3.2 6.4 0.00 0.00 0.00 28 1013.0
20260506061519 18 360 3.2 4.8 0.00 0.00 0.00 29 1012.9
20260506060518 18 360 3.2 6.4 0.00 0.00 0.00 29 1012.8
20260506051019 19 287 1.6 8.0 0.00 0.00 0.00 28 1012.0
20260506045019 20 360 1.6 8.0 0.00 0.00 0.00 28 1011.7
20260506043019 20 360 0.0 1.6 0.00 0.00 0.00 29 1011.7
20260506042518 20 360 0.0 1.6 0.00 0.00 0.00 28 1011.5
20260506042019 21 360 0.0 3.2 0.00 0.00 0.00 28 1011.6
20260506041519 21 187 0.0 4.8 0.00 0.00 0.00 27 1011.5
20260506040519 21 360 0.0 6.4 0.00 0.00 0.00 27 1011.4
20260506040019 21 360 3.2 6.4 0.00 0.00 0.00 27 1011.2
20260506035519 21 360 1.6 4.8 0.00 0.00 0.00 27 1011.0
20260506035019 21 360 0.0 4.8 0.00 0.00 0.00 26 1011.0
20260506034020 21 159 1.6 6.4 0.00 0.00 0.00 26 1010.8
20260506033519 21 360 6.4 11.3 0.00 0.00 0.00 25 1010.6
20260506033018 21 360 3.2 11.3 0.00 0.00 0.00 25 1010.5
20260506032519 21 360 3.2 9.7 0.00 0.00 0.00 24 1010.5
20260506032020 21 360 1.6 8.0 0.00 0.00 0.00 23 1010.3
20260506031018 21 360 0.0 8.0 0.00 0.00 0.00 23 1010.3
20260506030518 22 360 0.0 8.0 0.00 0.00 0.00 23 1010.3
20260506025519 22 360 3.2 9.7 0.00 0.00 0.00 22 1010.0
20260506024519 22 360 4.8 11.3 0.00 0.00 0.00 21 1010.0
20260506024018 22 360 6.4 11.3 0.00 0.00 0.00 21 1009.8
20260506023519 22 360 4.8 9.7 0.00 0.00 0.00 21 1009.7
20260506022519 22 360 1.6 8.0 0.00 0.00 0.00 20 1009.6
20260506022018 22 360 3.2 9.7 0.00 0.00 0.00 20 1009.5
20260506021019 22 360 4.8 12.9 0.00 0.00 0.00 19 1009.4
20260506020018 22 360 3.2 12.9 0.00 0.00 0.00 19 1009.4
20260506015518 22 360 4.8 12.9 0.00 0.00 0.00 19 1009.1
20260506015019 23 360 3.2 11.3 0.00 0.00 0.00 19 1009.1
20260506014518 23 360 6.4 11.3 0.00 0.00 0.00 19 1009.1
20260506014019 23 360 1.6 11.3 0.00 0.00 0.00 19 1009.2
20260506013018 23 360 1.6 4.8 0.00 0.00 0.00 19 1009.1
20260506012519 23 360 0.0 8.0 0.00 0.00 0.00 19 1009.2
20260506012019 23 360 1.6 11.3 0.00 0.00 0.00 19 1009.1
20260506011018 23 360 1.6 4.8 0.00 0.00 0.00 19 1009.0
20260506010518 23 360 1.6 6.4 0.00 0.00 0.00 19 1009.1
20260506010018 23 360 1.6 6.4 0.00 0.00 0.00 19 1009.2
20260506005519 23 360 0.0 9.7 0.00 0.00 0.00 19 1009.0
20260506005019 23 360 4.8 12.9 0.00 0.00 0.00 19 1009.1
20260506004518 23 360 9.7 12.9 0.00 0.00 0.00 19 1009.1
20260506004018 23 360 4.8 9.7 0.00 0.00 0.00 19 1009.1
20260506003019 23 360 1.6 16.1 0.00 0.00 0.00 19 1009.0
20260506002519 23 360 3.2 8.0 0.00 0.00 0.00 20 1008.8
20260506001518 23 360 4.8 12.9 0.00 0.00 0.00 20 1009.0
20260506000518 23 360 11.3 11.3 0.00 0.00 0.00 19 1008.9
20260505235018 23 360 6.4 14.5 0.00 0.00 0.00 19 1008.9
20260505234519 23 360 6.4 9.7 0.00 0.00 0.00 20 1008.9
20260505234019 23 66 0.0 11.3 0.00 0.00 0.00 20 1008.9
20260505233519 23 360 1.6 11.3 0.00 0.00 0.00 20 1008.8
20260505233018 23 360 3.2 11.3 0.00 0.00 0.00 19 1008.8
20260505232519 23 265 1.6 11.3 0.00 0.00 0.00 19 1008.7
20260505232018 23 360 1.6 6.4 0.00 0.00 0.00 20 1008.8
20260505231519 23 360 1.6 6.4 0.00 0.00 0.00 20 1008.9
20260505231018 22 360 1.6 6.4 0.00 0.00 0.00 19 1008.9
20260505230018 23 360 3.2 12.9 0.00 0.00 0.00 19 1009.1
20260505225518 23 360 3.2 14.5 0.00 0.00 0.00 18 1009.5
20260505225018 23 360 9.7 14.5 0.00 0.00 0.00 19 1009.6
20260505224520 23 360 14.5 14.5 0.00 0.00 0.00 18 1009.7
20260505224019 23 360 1.6 14.5 0.00 0.00 0.00 18 1009.5
20260505223519 23 360 12.9 14.5 0.00 0.00 0.00 19 1009.5
20260505223018 23 360 3.2 17.7 0.00 0.00 0.00 19 1009.5
20260505221519 23 191 4.8 14.5 0.00 0.00 0.00 19 1009.5
20260505221018 23 360 4.8 17.7 0.00 0.00 0.00 19 1009.5
20260505220518 23 360 6.4 17.7 0.00 0.00 0.00 19 1009.8
20260505220018 23 360 4.8 9.7 0.00 0.00 0.00 20 1009.8
20260505215018 23 107 4.8 14.5 0.00 0.00 0.00 20 1010.0
20260505214518 23 87 8.0 14.5 0.00 0.00 0.00 19 1010.0
20260505214018 22 360 4.8 12.9 0.00 0.00 0.00 20 1009.9
20260505213518 22 360 4.8 12.9 0.00 0.00 0.00 20 1009.9
20260505212518 23 360 6.4 17.7 0.00 0.00 0.00 20 1010.4
20260505212018 23 360 8.0 16.1 0.00 0.00 0.00 20 1010.4
20260505211518 23 360 8.0 16.1 0.00 0.00 0.00 20 1010.5
20260505211018 22 139 6.4 11.3 0.00 0.00 0.00 21 1010.3
20260505210519 23 360 1.6 11.3 0.00 0.00 0.00 21 1010.7
20260505210018 23 360 6.4 11.3 0.00 0.00 0.00 20 1010.7
20260505205519 22 360 6.4 14.5 0.00 0.00 0.00 22 1010.7
20260505205018 23 128 8.0 14.5 0.00 0.00 0.00 20 1010.8
20260505204519 22 360 6.4 19.3 0.00 0.00 0.00 22 1010.8
20260505204018 23 120 3.2 19.3 0.00 0.00 0.00 21 1010.8
20260505203018 22 122 11.3 22.5 0.00 0.00 0.00 23 1010.7
20260505202518 22 72 14.5 14.5 0.00 0.00 0.00 23 1010.7
20260505201518 22 90 14.5 16.1 0.00 0.00 0.00 23 1010.7
20260505201019 22 69 6.4 12.9 0.00 0.00 0.00 24 1010.8
20260505200018 22 360 4.8 14.5 0.00 0.00 0.00 24 1010.9
20260505195518 22 360 4.8 14.5 0.00 0.00 0.00 24 1011.0
20260505195018 21 360 12.9 14.5 0.00 0.00 0.00 24 1010.9
20260505194518 21 360 4.8 14.5 0.00 0.00 0.00 25 1011.0
20260505194018 22 360 11.3 16.1 0.00 0.00 0.00 24 1011.1
20260505193020 22 360 3.2 11.3 0.00 0.00 0.00 24 1011.1
20260505192518 22 360 4.8 12.9 0.00 0.00 0.00 24 1011.2
20260505192018 21 360 6.4 12.9 0.00 0.00 0.00 25 1011.1
20260505191519 21 266 1.6 12.9 0.00 0.00 0.00 25 1011.2
20260505191018 21 360 4.8 16.1 0.00 0.00 0.00 26 1011.2